Regional Weather Roundup
Issued by NWS

Home | Current Version | Previous Version | Graphics & Text | Print | Product List | Glossary On
Versions: 1 2 3 4 5 6 7 8 9 10 11 12 13 14 15 16 17 18 19 20 21 22 23 24 25 26 27 28 29 30 31 32 33 34 35 36 37 38 39 40 41 42 43 44 45 46 47 48 49 50
000
ASUS43 KLSX 210457
RWRMO

WEATHER SUMMARY FOR MISSOURI
NATIONAL WEATHER SERVICE SPRINGFIELD MO
1200 AM CDT THU SEP 21 2017

NOTE: "FAIR" INDICATES FEW OR NO CLOUDS BELOW 12,000 FEET WITH NO
       SIGNIFICANT WEATHER AND/OR OBSTRUCTIONS TO VISIBILITY.
       CURRENT SKY AND/OR WEATHER CONDITIONS ARE NOT AVAILABLE FOR
       CHILLICOTHE AND FARMINGTON.

MOZ001>031-035>038-043-044-053-054-210600-
...NORTHERN AND WESTERN MISSOURI...

CITY           SKY/WX    TMP DP  RH WIND       PRES   REMARKS
KANSAS CTY INT PTCLDY    78  74  87 S9        29.86S
LEE`S SUMMIT   CLEAR     80  74  81 S9        29.88R
ST JOSEPH      MOCLDY    73  72  96 N3        29.85R
CHILLICOTHE      N/A     74  74 100 CALM      29.88R

$$
MOZ066>068-077>081-088>096-101>105-210600-
...SOUTHWEST MISSOURI...

CITY           SKY/WX    TMP DP  RH WIND       PRES   REMARKS
SPRINGFIELD    CLEAR     77  70  79 S9        29.94R
JOPLIN         CLEAR     79  72  79 S12       29.91R

$$
MOZ032>034-039>042-045>050-055>058-069>072-210600-
...CENTRAL MISSOURI...

CITY           SKY/WX    TMP DP  RH WIND       PRES   REMARKS
COLUMBIA       NOT AVBL
JEFFERSON CITY CLEAR     79  69  71 CALM      29.91R
ROLLA          CLEAR     78  71  79 S9        29.96S
SEDALIA        CLEAR     78  72  81 S9        29.91S
WARRENSBURG    CLEAR     79  70  73 S6        29.88S

$$
MOZ051-052-059>065-210600-
...EAST CENTRAL MISSOURI...

CITY           SKY/WX    TMP DP  RH WIND       PRES   REMARKS
ST LOUIS INTL  CLEAR     83  70  64 S12       29.95R

$$
MOZ072>076-082>087-097>100-106>115-210600-
...SOUTH CENTRAL AND SOUTHEAST MISSOURI...

CITY           SKY/WX    TMP DP  RH WIND       PRES   REMARKS
CAPE GIRARDEAU CLEAR     78  70  76 S7        29.97S
POPLAR BLUFF   CLEAR     73  70  90 CALM      29.96S
WEST PLAINS    CLEAR     77  70  79 S6        30.00R

$$


USA.gov is the U.S. government's official web portal to all federal, state and local government web resources and services.